When you browse on this site, cookies collect data to enhance your experience and personalize the content and advertising you see.
Visit our Privacy Policy to learn more. By continuing to use the site, you agree to this use of cookies and data.
  • En España
  • Lista de países
  • Para 7 días
  • Temperatura del agua
  • El tiempo en el mapa
  • Informadores
  • user-avatar
    Iniciar sesión

    Tiempo cada hora Pawlodar

    Hoy, 23 Enero, Jueves

    Tiempo Temperatura Precipitaciones Viento Presión Humedad
    00:00 -13°C° 0 mm 7 mps 749 mmHg 83%
    01:00 -13°C° 0 mm 7 mps 749 mmHg 83%
    02:00 -12°C° 0 mm 7 mps 749 mmHg 82%
    03:00 -12°C° 0 mm 7 mps 748 mmHg 84%
    04:00 -12°C° 0 mm 8 mps 748 mmHg 87%
    05:00 -11°C° 0 mm 8 mps 748 mmHg 86%
    06:00 -10°C° 0.1 mm 8 mps 748 mmHg 87%
    07:00 -10°C° 0.1 mm 9 mps 747 mmHg 87%
    08:00 -9°C° 0.1 mm 9 mps 747 mmHg 88%
    09:00 -8°C° 0.1 mm 10 mps 746 mmHg 87%
    10:00 -8°C° 0.1 mm 10 mps 746 mmHg 87%
    11:00 -7°C° 0 mm 11 mps 746 mmHg 85%
    12:00 -7°C° 0 mm 11 mps 746 mmHg 82%
    13:00 -7°C° 0 mm 10 mps 746 mmHg 80%
    14:00 -5°C° 0 mm 9 mps 746 mmHg 78%
    15:00 -5°C° 0 mm 9 mps 746 mmHg 79%
    16:00 -6°C° 0 mm 9 mps 746 mmHg 79%
    17:00 -6°C° 0 mm 9 mps 746 mmHg 78%
    18:00 -6°C° 0 mm 9 mps 746 mmHg 81%
    19:00 -6°C° 0 mm 9 mps 746 mmHg 85%
    20:00 -6°C° 0 mm 9 mps 746 mmHg 88%
    21:00 -6°C° 0.1 mm 9 mps 745 mmHg 86%
    22:00 -5°C° 0.1 mm 9 mps 745 mmHg 83%
    23:00 -5°C° 0.1 mm 9 mps 745 mmHg 80%

    Mañana, 24 Enero, Viernes

    Tiempo Temperatura Precipitaciones Viento Presión Humedad
    00:00 -5°C° 0 mm 9 mps 745 mmHg 80%
    01:00 -5°C° 0 mm 9 mps 745 mmHg 81%
    02:00 -5°C° 0 mm 8 mps 745 mmHg 81%
    03:00 -5°C° 0 mm 8 mps 745 mmHg 81%
    04:00 -5°C° 0 mm 8 mps 745 mmHg 81%
    05:00 -5°C° 0 mm 8 mps 745 mmHg 81%
    06:00 -5°C° 0 mm 8 mps 745 mmHg 81%
    07:00 -5°C° 0 mm 8 mps 745 mmHg 81%
    08:00 -5°C° 0 mm 8 mps 744 mmHg 82%
    09:00 -4°C° 0 mm 8 mps 744 mmHg 82%
    10:00 -4°C° 0 mm 9 mps 744 mmHg 82%
    11:00 -4°C° 0 mm 9 mps 743 mmHg 82%
    12:00 -4°C° 0.1 mm 8 mps 743 mmHg 84%
    13:00 -3°C° 0.1 mm 7 mps 743 mmHg 85%
    14:00 -2°C° 0.1 mm 7 mps 743 mmHg 87%
    15:00 -3°C° 0 mm 6 mps 743 mmHg 86%
    16:00 -3°C° 0 mm 6 mps 743 mmHg 85%
    17:00 -4°C° 0 mm 5 mps 743 mmHg 84%
    18:00 -4°C° 0 mm 5 mps 743 mmHg 85%
    19:00 -4°C° 0 mm 5 mps 743 mmHg 86%
    20:00 -5°C° 0 mm 5 mps 743 mmHg 86%
    21:00 -5°C° 0.2 mm 5 mps 743 mmHg 89%
    22:00 -5°C° 0.2 mm 5 mps 743 mmHg 92%
    23:00 -4°C° 0.2 mm 5 mps 743 mmHg 96%

    Pasado mañana, 25 Enero, Sábado

    Tiempo Temperatura Precipitaciones Viento Presión Humedad
    00:00 -4°C° 0.4 mm 5 mps 743 mmHg 96%
    01:00 -4°C° 0.4 mm 5 mps 742 mmHg 97%
    02:00 -4°C° 0.4 mm 5 mps 742 mmHg 97%
    03:00 -4°C° 0.5 mm 5 mps 742 mmHg 97%
    04:00 -2°C° 0.5 mm 5 mps 741 mmHg 97%
    05:00 -2°C° 0.5 mm 5 mps 741 mmHg 97%
    06:00 -4°C° 0.2 mm 5 mps 741 mmHg 97%
    07:00 -4°C° 0.2 mm 5 mps 741 mmHg 97%
    08:00 -4°C° 0.2 mm 5 mps 741 mmHg 96%
    09:00 -4°C° 0.1 mm 5 mps 742 mmHg 95%
    10:00 -4°C° 0.1 mm 6 mps 742 mmHg 94%
    11:00 -4°C° 0.1 mm 6 mps 743 mmHg 93%
    12:00 -5°C° 0 mm 6 mps 744 mmHg 91%
    13:00 -6°C° 0 mm 7 mps 745 mmHg 88%
    14:00 -7°C° 0 mm 7 mps 746 mmHg 86%
    15:00 -9°C° 0 mm 6 mps 746 mmHg 87%
    16:00 -11°C° 0 mm 5 mps 747 mmHg 89%
    17:00 -11°C° 0 mm 4 mps 748 mmHg 90%
    18:00 -12°C° 0 mm 4 mps 748 mmHg 90%
    19:00 -14°C° 0 mm 4 mps 748 mmHg 89%
    20:00 -15°C° 0 mm 4 mps 749 mmHg 89%
    21:00 -15°C° 0 mm 5 mps 749 mmHg 89%
    22:00 -17°C° 0 mm 5 mps 749 mmHg 88%
    23:00 -18°C° 0 mm 5 mps 750 mmHg 88%

    26 Enero, Domingo

    Tiempo Temperatura Precipitaciones Viento Presión Humedad
    00:00 -18°C° 0 mm 5 mps 750 mmHg 88%
    01:00 -19°C° 0 mm 5 mps 750 mmHg 88%
    02:00 -19°C° 0 mm 5 mps 751 mmHg 87%
    03:00 -20°C° 0 mm 5 mps 751 mmHg 87%
    04:00 -20°C° 0 mm 5 mps 751 mmHg 87%
    05:00 -20°C° 0 mm 5 mps 751 mmHg 87%
    06:00 -20°C° 0 mm 5 mps 751 mmHg 86%
    07:00 -21°C° 0 mm 6 mps 751 mmHg 86%
    08:00 -21°C° 0 mm 6 mps 751 mmHg 85%
    09:00 -20°C° 0 mm 6 mps 752 mmHg 83%
    10:00 -18°C° 0 mm 7 mps 752 mmHg 81%
    11:00 -17°C° 0 mm 7 mps 752 mmHg 79%
    12:00 -15°C° 0 mm 7 mps 752 mmHg 79%
    13:00 -15°C° 0 mm 7 mps 751 mmHg 79%
    14:00 -14°C° 0 mm 7 mps 751 mmHg 79%
    15:00 -14°C° 0 mm 7 mps 751 mmHg 80%
    16:00 -14°C° 0 mm 6 mps 751 mmHg 81%
    17:00 -14°C° 0 mm 6 mps 751 mmHg 82%
    18:00 -14°C° 0 mm 6 mps 750 mmHg 81%
    19:00 -14°C° 0 mm 7 mps 750 mmHg 81%
    20:00 -14°C° 0 mm 7 mps 750 mmHg 80%
    21:00 -14°C° 0 mm 7 mps 749 mmHg 80%
    22:00 -14°C° 0 mm 7 mps 749 mmHg 79%
    23:00 -13°C° 0 mm 7 mps 748 mmHg 79%

    27 Enero, Lunes

    Tiempo Temperatura Precipitaciones Viento Presión Humedad
    00:00 -13°C° 0 mm 7 mps 747 mmHg 79%
    01:00 -12°C° 0 mm 8 mps 747 mmHg 80%
    02:00 -12°C° 0 mm 8 mps 746 mmHg 80%
    03:00 -11°C° 0 mm 8 mps 745 mmHg 80%
    04:00 -11°C° 0 mm 8 mps 745 mmHg 81%
    05:00 -11°C° 0 mm 8 mps 744 mmHg 81%
    06:00 -10°C° 0.1 mm 8 mps 743 mmHg 81%
    07:00 -10°C° 0.1 mm 8 mps 743 mmHg 81%
    08:00 -9°C° 0.1 mm 9 mps 742 mmHg 81%
    09:00 -8°C° 0 mm 9 mps 742 mmHg 80%
    10:00 -8°C° 0 mm 10 mps 741 mmHg 78%
    11:00 -7°C° 0 mm 10 mps 741 mmHg 76%
    12:00 -7°C° 0 mm 10 mps 741 mmHg 77%
    13:00 -5°C° 0 mm 10 mps 740 mmHg 78%
    14:00 -5°C° 0 mm 10 mps 740 mmHg 78%
    15:00 -6°C° 0 mm 9 mps 740 mmHg 78%
    16:00 -6°C° 0 mm 9 mps 741 mmHg 79%
    17:00 -7°C° 0 mm 8 mps 741 mmHg 79%
    18:00 -10°C° 0 mm 8 mps 742 mmHg 80%
    19:00 -11°C° 0 mm 7 mps 743 mmHg 81%
    20:00 -12°C° 0 mm 6 mps 744 mmHg 82%
    21:00 -14°C° 0 mm 6 mps 744 mmHg 83%
    22:00 -14°C° 0 mm 6 mps 744 mmHg 84%
    23:00 -14°C° 0 mm 5 mps 745 mmHg 85%

    28 Enero, Martes

    Tiempo Temperatura Precipitaciones Viento Presión Humedad
    00:00 -14°C° 0 mm 5 mps 745 mmHg 85%
    01:00 -14°C° 0 mm 5 mps 745 mmHg 86%
    02:00 -13°C° 0 mm 5 mps 745 mmHg 86%
    03:00 -15°C° 0 mm 6 mps 745 mmHg 85%
    04:00 -15°C° 0 mm 7 mps 746 mmHg 84%
    05:00 -17°C° 0 mm 7 mps 746 mmHg 83%
    06:00 -18°C° 0 mm 7 mps 746 mmHg 85%
    07:00 -20°C° 0 mm 7 mps 747 mmHg 86%
    08:00 -21°C° 0 mm 7 mps 747 mmHg 87%
    09:00 -20°C° 0 mm 7 mps 748 mmHg 87%
    10:00 -21°C° 0 mm 8 mps 748 mmHg 87%
    11:00 -19°C° 0 mm 8 mps 749 mmHg 87%
    12:00 -18°C° 0 mm 7 mps 749 mmHg 86%
    13:00 -17°C° 0 mm 6 mps 749 mmHg 84%
    14:00 -17°C° 0 mm 5 mps 749 mmHg 83%
    15:00 -17°C° 0.1 mm 5 mps 749 mmHg 87%
    16:00 -15°C° 0.1 mm 4 mps 749 mmHg 91%
    17:00 -14°C° 0.1 mm 3 mps 749 mmHg 95%
    18:00 -14°C° 0.1 mm 3 mps 749 mmHg 95%
    19:00 -13°C° 0.1 mm 2 mps 749 mmHg 95%
    20:00 -13°C° 0.1 mm 2 mps 749 mmHg 95%
    21:00 -14°C° 0.1 mm 3 mps 750 mmHg 95%
    22:00 -16°C° 0.1 mm 4 mps 751 mmHg 95%
    23:00 -17°C° 0.1 mm 5 mps 752 mmHg 94%
    Mostrar más